Flag for U.S.A. Weather past 2 weeks in Bristol, Tennessee, U.S.A.

Now
69 °F

Light rain. Mostly cloudy.


Feels Like: 69 °F
Forecast: 66 / 75 °F
Wind: No wind

Location: Abingdon-Southwest Abingdon

Current Time: Jul 3, 2015 at 3:17:37 AM

Latest Report: Jul 3, 2015 at 2:55 AM


Visibility: 5 mi

Pressure: 29.96 "Hg

Humidity: 95%

Dew point: 67 °F

Location of BristolLocation

Historic Weather in Bristol — Graph

°F

Bristol temperature yesterday

Maximum temperature yesterday: 74 °F (at 6:35 PM)
Minimum temperature yesterday: 69 °F (at 10:35 PM)
Average temperature yesterday: 71 °F

Past Weeks' High & Low Weather Summary

 TemperatureHumidityPressure
High90 °F (Jun 18, 2:35 PM)100% (Jun 19, 3:15 AM)30.23 "Hg (Jun 19, 3:15 AM)
Low56 °F (Jun 29, 6:15 AM)38% (Jun 25, 3:15 PM)29.84 "Hg (Jun 27, 3:15 PM)
Average74 °F79%30.07 "Hg
* Reported Jun 18 1:15 AM — Jul 3 1:55 AM, Bristol, Weather by CustomWeather, © 2015

Note: Actual official high and low records may vary slightly from our data, if they occured in-between our weather recording intervals... More about our weather records

Advertising

Bristol weather history for previous 24 hours

 ConditionsComfort  
Time TempWeatherWind HumidityBarometerVisibility
1:55 AM
Fri, Jul 3
68 °FMostly cloudy.No wind98%29.97 "Hg10 mi
1:15 AM69 °FMostly cloudy.No wind97%29.99 "Hg10 mi
12:55 AM69 °FMostly cloudy.No wind98%30.00 "Hg10 mi
12:15 AM69 °FMostly cloudy.No wind95%30.00 "Hg10 mi
11:55 PM
Thu, Jul 2
69 °FMostly cloudy.No wind94%30.00 "Hg10 mi
11:15 PM69 °FOvercast.No wind94%30.00 "Hg10 mi
10:55 PM69 °FPartly cloudy.No wind94%30.00 "Hg10 mi
10:35 PM69 °FPartly cloudy.No wind95%30.00 "Hg10 mi
10:15 PM70 °FPartly cloudy.No wind90%29.99 "Hg10 mi
9:55 PM70 °FMostly cloudy.No wind89%29.99 "Hg10 mi
9:35 PM70 °FMostly cloudy.No wind89%29.99 "Hg10 mi
9:15 PM70 °FMore clouds than sun.No wind89%29.98 "Hg10 mi
8:55 PM71 °FCloudy.5 mph86%29.97 "Hg10 mi
8:35 PM71 °FCloudy.5 mph85%29.97 "Hg10 mi
8:15 PM72 °FCloudy.5 mph85%29.97 "Hg10 mi
7:55 PM72 °FCloudy.6 mph83%29.97 "Hg10 mi
7:35 PM72 °FMore clouds than sun.7 mph83%29.98 "Hg10 mi
7:15 PM73 °FMore clouds than sun.5 mph82%29.97 "Hg10 mi
6:55 PM74 °FCloudy.6 mph81%29.97 "Hg10 mi
6:35 PM74 °FCloudy.8 mph79%29.97 "Hg10 mi
6:15 PM74 °FCloudy.9 mph82%29.96 "Hg10 mi
5:55 PM73 °FCloudy.9 mph83%29.96 "Hg10 mi
5:15 PM73 °FMostly cloudy.6 mph82%29.95 "Hg10 mi
4:55 PM72 °FCloudy.7 mph86%29.96 "Hg10 mi
4:15 PM72 °FMostly cloudy.8 mph86%29.98 "Hg10 mi
3:55 PM73 °FMostly cloudy.7 mph86%29.99 "Hg10 mi
3:35 PM72 °FCloudy.8 mph91%29.99 "Hg10 mi
3:15 PM70 °FLight rain. Mostly cloudy.8 mph95%30.00 "Hg5 mi
2:55 PM71 °FRain. Mostly cloudy.6 mph95%30.00 "Hg4 mi
Weather by CustomWeather, © 2015

See weather overviewHow to use our weather pages